Simultaneous Nadir Overpasses (SNOs) Predictions

Prediction of SNOs between LANDSAT-8 and NOAA-19 Satellite Orbit:

Table of predicted SNOs for the next 14.0 days since TLE Epoch: 11/2/2019
Index Date (LANDSAT-8) Time (LANDSAT-8) Lat,Lon (LANDSAT-8) SZA (LANDSAT-8 ) Date (NOAA-19) Time (NOAA-19) Lat,Lon (NOAA-19) SZA (NOAA-19 ) Distance(km) Time Diff (sec)
1 11/02/2019 12:54:10 -79.23,-171.35 85.00 11/02/2019 12:53:11 -79.22,-171.44 85.04 2.59 59
2 11/02/2019 13:43:37 79.20, -3.95 94.96 11/02/2019 13:44:06 79.21, -4.08 94.97 2.81 29
3 11/04/2019 19:17:21 -79.21, 92.70 84.33 11/04/2019 19:17:33 -79.20, 92.69 84.33 0.92 12
4 11/07/2019 00:51:04 79.22,-170.69 96.36 11/07/2019 00:50:51 79.23,-170.81 96.36 3.05 13
5 11/09/2019 06:24:48 -79.23, -74.04 82.98 11/09/2019 06:24:18 -79.23, -74.09 82.99 1.22 30
6 11/09/2019 07:14:15 79.18, 93.32 96.97 11/09/2019 07:15:13 79.22, 93.31 97.02 3.74 58
7 11/11/2019 11:58:31 79.23, 22.52 97.64 11/11/2019 11:57:36 79.26, 22.45 97.65 3.79 55
8 11/11/2019 12:47:59 -79.20,-170.03 82.40 11/11/2019 12:48:40 -79.23,-170.03 82.36 3.07 41
9 11/13/2019 17:32:15 -79.24, 119.16 81.75 11/13/2019 17:31:02 -79.24, 119.32 81.76 3.20 73
10 11/13/2019 18:21:41 79.23, -73.25 98.25 11/13/2019 18:21:57 79.21, -73.18 98.25 2.32 16
11 11/15/2019 23:55:24 -79.24, 23.39 81.17 11/15/2019 23:55:23 -79.24, 23.34 81.18 1.04 1




NCC Satellite Simultaneous Nadir Overpasses (SNOs) Prediction Service
